Location: B?dimalle
(17.1788°N, 80.5377°E)
Time: 23:40:21
(UTC+00:00)

Injun/Solrad 3 - Pass Details

Date: 22 February 2026
Orbit: 872 x 984 km, 66.8° (Epoch: 7 March)

Event Time Altitude Azimuth Distance (km) Brightness Sun altitude
Rises 15:42:42 0° 320° (NW) 3,633 11.4 -43.7°
Reaches altitude 10° 15:45:36 10° 308° (NW) 2,701 10.7 -44.4°
Enters shadow 15:47:48 19° 292° (WNW) 2,128 10.2 -44.9°
